OpenBCM V1.13 (Linux)

Packet Radio Mailbox

DB0FHN

[JN59NK Nuernberg]

 Login: GUEST





  
W4DPH  > KEPS     08.02.03 03:26l 123 Lines 3219 Bytes #999 (0) @ AMSAT
BID : ORB03037.M
Read: DB0FHN GUEST
Subj: Orbital Elements  03037.MISC
Path: DB0FHN<DB0RGB<DB0MRW<DB0ERF<DB0GR<DB0BRB<DB0TGM<DK0MNL<DB0FBB<DB0IUZ<
      DB0GOS<ON0AR<ON0AR<7M3TJZ<WB0TAX<W4DPH
Sent: 030208/0117Z @:W4DPH.#TPA.FL.USA.NOAM #:45800 [CLW] FBB $:ORB03037.M
From: W4DPH@W4DPH.#TPA.FL.USA.NOAM
To  : KEPS@AMSAT


HR AMSAT ORBITAL ELEMENTS FOR MANNED AND MISCELLANEOUS SATELLITES
FROM WA5QGD FORT WORTH,TX February 6, 2003
SEND SUBSCRIBE/UNSUBSCRIBE TO majordomo@amsat.org ONLY
BID: ORB03037.M
TO ALL RADIO AMATEURS BT

Satellite: HUBBLE
Catalog number: 20580
Epoch time:      03037.69930556
Element set:     319
Inclination:       28.4678 deg
RA of node:       115.1810 deg
Eccentricity:    0.0004480
Arg of perigee:   141.2035 deg
Mean anomaly:     325.7608 deg
Mean motion:   14.97760098 rev/day
Decay rate:       2.51e-06 rev/day^2
Epoch rev:           50085
Checksum:              285

Satellite: UARS
Catalog number: 21701
Epoch time:      03037.78906169
Element set:     818
Inclination:       56.9813 deg
RA of node:        79.7308 deg
Eccentricity:    0.0005007
Arg of perigee:   115.1003 deg
Mean anomaly:     245.0548 deg
Mean motion:   15.02831643 rev/day
Decay rate:       7.50e-06 rev/day^2
Epoch rev:           62394
Checksum:              282

Satellite: PO-34
Catalog number: 25520
Epoch time:      03035.97864957
Element set:    0636
Inclination:      028.4590 deg
RA of node:       314.3667 deg
Eccentricity:    0.0005515
Arg of perigee:   201.0861 deg
Mean anomaly:     158.9512 deg
Mean motion:   15.13808697 rev/day
Decay rate:      2.906e-05 rev/day^2
Epoch rev:           23552
Checksum:              316

Satellite: ISS
Catalog number: 25544
Epoch time:      03037.85978726
Element set:     661
Inclination:       51.6378 deg
RA of node:       314.8138 deg
Eccentricity:    0.0005737
Arg of perigee:   119.2519 deg
Mean anomaly:     351.0130 deg
Mean motion:   15.60399612 rev/day
Decay rate:     2.5552e-04 rev/day^2
Epoch rev:           24067
Checksum:              306

Satellite: WO-39
Catalog number: 26061
Epoch time:      03037.19247625
Element set:     758
Inclination:      100.2096 deg
RA of node:        91.9641 deg
Eccentricity:    0.0034911
Arg of perigee:   314.9951 deg
Mean anomaly:      44.8402 deg
Mean motion:   14.37809116 rev/day
Decay rate:       5.25e-06 rev/day^2
Epoch rev:           15875
Checksum:              304

Satellite: OO-38
Catalog number: 26063
Epoch time:      03037.70608802
Element set:     715
Inclination:      100.2146 deg
RA of node:        90.1333 deg
Eccentricity:    0.0037196
Arg of perigee:   320.7642 deg
Mean anomaly:      39.0842 deg
Mean motion:   14.35476126 rev/day
Decay rate:       1.72e-06 rev/day^2
Epoch rev:           15868
Checksum:              281

Satellite: SO-43
Catalog number: 26929
Epoch time:      03021.14417834
Element set:     715
Inclination:       67.0082 deg
RA of node:        58.0340 deg
Eccentricity:    0.0002739
Arg of perigee:   336.9161 deg
Mean anomaly:      23.5083 deg
Mean motion:   16.51128562 rev/day
Decay rate:  2.3075867e-01 rev/day^2
Epoch rev:            7433
Checksum:              297

Satellite: NO-45
Catalog number: 26932
Epoch time:      03036.90765340
Element set:     389
Inclination:       67.0560 deg
RA of node:       287.9182 deg
Eccentricity:    0.0005400
Arg of perigee:   239.4562 deg
Mean anomaly:     120.6005 deg
Mean motion:   14.29289224 rev/day
Decay rate:       1.05e-06 rev/day^2
Epoch rev:            7056
Checksum:              289



Read previous mail | Read next mail


 13.06.2026 18:30:13lGo back Go up